Showing default

COSMOS 2248, 22649

Orbit data source: Space-Track

COSMOS 2248, 22649 is a payload satellite owned by VKS (CIS) in LEO that was launched on Tue, 11 May 1993 UTC via a TSIKLON-3 launch vehicle from the Plesetsk Missile And Space Complex (PKMTR). Payload-class satellites include a variety of spacecraft equipped with specific instruments for various scientific and technological missions. These include communications satellites like Starlink; space stations such as the ISS; scientific satellites like the Hubble; Earth observation satellites from companies like Planet Labs, Umbra, and HawkEye 360; GPS; miniature CubeSats for education and research; and military/defense satellites.

Loading next visibility...
Identifier
22649, 1993-030D
Orbit
LEO
Country
Flag of CISCIS
Related business
Manufacturer
NPO PM
Mission
Defense Communications
Bus & Motor
STRELA-3, Unknown motor
Mass
225 kg wet, 225 kg dry
Launch date (UTC)
1993-05-11 (33 years ago)
Launch vehicle
TSIKLON-3
Launch site
Plesetsk Missile And Space Complex (PKMTR)
Object type
Payload
Rocket body
Debris
Shape & HBR
Cyl, 0.8 m
Radar Cross Section
1.257 m², Medium (>0.1 m² and < 1m²)

Expand to show TLE details & history
Last TLE update: 12 hours ago

TLE from 12 hours ago
0 COSMOS 2248
1 22649U 93030D   26124.55102572  .00000019  00000-0  47320-4 0  9990
2 22649  82.5796 339.2316 0009847  36.2306 323.9451 12.63521404520908
Epoch: 2026-05-04T13:13Z
TLE epoch observation values (Epoch: 2026-05-04T13:13:28.622Z)
Latitude
-0°
Longitude
-81.57626°
Altitude
1,404.978 km
Speed
7.161 km/s
True Right ascension
22h 36m 55s
True Declination
0° 00' 00"
Sunlit
Object was in daylight at epoch
Visualization orbit readout
Latitude
Unknown
Longitude
Unknown
Altitude
Unknown
Speed
Unknown
Apparent Right ascension
Unknown
Apparent Declination
Unknown
Sunlit
N/A
Visualization observer readout
Local Sidereal Time
09:00:09
Azimuth
Unknown
Elevation
Unknown
Doppler factor
Unknown
Orbital elements
Apogee altitude
1,413.427 km
Perigee altitude
1,398.098 km
Semi-major axis
7,783.899 km
Eccentricity
0.00098
Inclination
82.5796°
RAAN
339.2316°
Arg. of periapsis
36.2306°
True anomaly
323.87862°
Mean anomaly
323.9451°
Eccentric anomaly
323.91187°
Mean motion
3.16044 °/min
Orbital period
113.91 mins
BSTAR
0.00004732
Loading maneuver chart data...
Computing Atmospheric mass density...
Loading historical data...
Loading historical data...
Loading historical data...
Loading historical data...
Loading historical data...
Loading historical data...
Loading historical data...

Documentation

Showing up to 5 results
|